EFW2744 ENBR-EGKK

Flight info

Callsign EFW2744
Flight time N/A
Altitude 37000
Route TUXIL DCT ZOL DCT ATNAK/N0450F380 DCT TIPAN DCT WECOW DCT BINBO DCT AKOKO N866 BUKUT P7 BARMI
Aircraft A319/M-SDE3FGHIRWY/LB1

Departure

Time 2026-04-27 19:24
Airport Bergen Airport, Flesland (ENBR)

Arrival

Time N/A
Airport London Gatwick Airport (EGKK)
Time Latitude Longitude Altitude Speed Heading
2026-04-27 19:05 60.28984 5.22805 169 ft 0 kts 210°
2026-04-27 19:10 60.28986 5.22807 169 ft 0 kts 212°
2026-04-27 19:10 60.28988 5.22810 169 ft 1 kts 174°
2026-04-27 19:11 60.29008 5.22806 168 ft 2 kts 184°
2026-04-27 19:11 60.29023 5.22806 168 ft 2 kts 178°
2026-04-27 19:11 60.29034 5.22806 168 ft 0 kts 177°
2026-04-27 19:11 60.29037 5.22806 168 ft 0 kts 228°
2026-04-27 19:12 60.29040 5.22813 168 ft 0 kts 272°
2026-04-27 19:12 60.29038 5.22825 168 ft 1 kts 280°
2026-04-27 19:12 60.29038 5.22828 168 ft 0 kts 279°
2026-04-27 19:17 60.29039 5.22813 168 ft 5 kts 279°
2026-04-27 19:18 60.29047 5.22695 167 ft 9 kts 273°
2026-04-27 19:18 60.29037 5.22548 166 ft 7 kts 260°
2026-04-27 19:18 60.29022 5.22444 165 ft 10 kts 265°
2026-04-27 19:18 60.28957 5.22387 165 ft 20 kts 169°
2026-04-27 19:19 60.28827 5.22433 166 ft 14 kts 171°
2026-04-27 19:19 60.28722 5.22467 166 ft 15 kts 170°
2026-04-27 19:19 60.28610 5.22504 165 ft 17 kts 171°
2026-04-27 19:19 60.28493 5.22542 164 ft 15 kts 170°
2026-04-27 19:20 60.28383 5.22578 162 ft 16 kts 171°
2026-04-27 19:20 60.28318 5.22593 161 ft 8 kts 198°
2026-04-27 19:20 60.28293 5.22509 160 ft 4 kts 252°
2026-04-27 19:20 60.28282 5.22428 159 ft 7 kts 259°
2026-04-27 19:21 60.28279 5.22382 158 ft 0 kts 261°
2026-04-27 19:22 60.28278 5.22374 158 ft 5 kts 261°
2026-04-27 19:22 60.28279 5.22266 157 ft 11 kts 282°
2026-04-27 19:22 60.28316 5.22155 156 ft 11 kts 338°
2026-04-27 19:22 60.28350 5.22141 157 ft 1 kts 349°
2026-04-27 19:23 60.28354 5.22140 157 ft 0 kts 349°
2026-04-27 19:23 60.28424 5.22117 157 ft 29 kts 351°
2026-04-27 19:23 60.28885 5.21962 162 ft 105 kts 350°
2026-04-27 19:24 60.29823 5.21648 189 ft 165 kts 352°
2026-04-27 19:24 60.30964 5.21275 920 ft 169 kts 349°
2026-04-27 19:24 60.32089 5.20874 1835 ft 169 kts 350°
2026-04-27 19:24 60.33240 5.20460 2504 ft 175 kts 350°
2026-04-27 19:25 60.34459 5.19981 2981 ft 190 kts 349°
2026-04-27 19:25 60.35799 5.19441 3516 ft 204 kts 349°
2026-04-27 19:25 60.37227 5.18839 4078 ft 220 kts 349°
2026-04-27 19:25 60.38797 5.18223 4662 ft 237 kts 350°
2026-04-27 19:26 60.40455 5.17728 5333 ft 250 kts 354°
2026-04-27 19:26 60.42203 5.17307 6136 ft 258 kts 353°
2026-04-27 19:26 60.43960 5.16824 7051 ft 261 kts 352°
2026-04-27 19:26 60.45718 5.16139 7930 ft 265 kts 341°
2026-04-27 19:27 60.47186 5.13982 8749 ft 274 kts 308°
2026-04-27 19:27 60.47899 5.10442 9579 ft 282 kts 280°
2026-04-27 19:27 60.47741 5.06468 10334 ft 292 kts 253°
2026-04-27 19:27 60.46688 5.02989 10976 ft 304 kts 225°
2026-04-27 19:28 60.44820 5.00790 11342 ft 323 kts 194°
2026-04-27 19:28 60.42542 5.00222 11685 ft 339 kts 182°
2026-04-27 19:28 60.40158 5.00043 12151 ft 351 kts 181°
2026-04-27 19:28 60.37738 4.99886 12830 ft 355 kts 182°
2026-04-27 19:29 60.35288 4.99689 13537 ft 358 kts 182°
2026-04-27 19:29 60.32801 4.99453 14171 ft 362 kts 182°
2026-04-27 19:29 60.30273 4.99186 14799 ft 365 kts 183°
2026-04-27 19:29 60.27753 4.98902 15415 ft 369 kts 183°
2026-04-27 19:30 60.25197 4.98604 16010 ft 373 kts 183°
2026-04-27 19:30 60.22604 4.98296 16590 ft 377 kts 183°
2026-04-27 19:30 60.19961 4.97980 17154 ft 381 kts 183°
2026-04-27 19:30 60.17334 4.97665 17703 ft 385 kts 183°
2026-04-27 19:31 60.14656 4.97342 18262 ft 389 kts 183°
2026-04-27 19:31 60.11960 4.97017 18803 ft 392 kts 183°
2026-04-27 19:31 60.09246 4.96690 19332 ft 396 kts 183°
2026-04-27 19:31 60.06491 4.96361 19837 ft 399 kts 183°
2026-04-27 19:32 60.03728 4.96031 20339 ft 403 kts 183°
2026-04-27 19:32 60.00944 4.95696 20826 ft 407 kts 183°
2026-04-27 19:32 59.98109 4.95356 21319 ft 410 kts 183°
2026-04-27 19:32 59.95268 4.95017 21803 ft 413 kts 183°
2026-04-27 19:33 59.92387 4.94673 22252 ft 417 kts 183°
2026-04-27 19:33 59.90475 4.94445 22541 ft 419 kts 183°
2026-04-27 19:33 59.86585 4.93984 23118 ft 424 kts 183°
2026-04-27 19:33 59.83675 4.93638 23556 ft 427 kts 183°
2026-04-27 19:34 59.80698 4.93286 23967 ft 430 kts 183°
2026-04-27 19:34 59.77732 4.92936 24373 ft 433 kts 183°
2026-04-27 19:34 59.74725 4.92581 24742 ft 436 kts 183°